Dewpoint
22 24 19 22 23 20 18 13 13 15 16 23 23 23 23 23 22 22 22 20 24 29 30 32 35 38 38 38 39 41 42 42 43 43 43 42 41 42 42 43 43 43 42 42
19 21 24 24 23 22 17 17 15 17 19 18 17 16 17 17 19 20 21 22 21 20 23 27 29 32 35 36 38 41 42 42 43 43 43 43 42 42 42 42 42 43 42 42
17 17 22 23 20 19 17 17 16 14 17 15 17 15 17 16 18 18 19 21 23 21 20 21 26 30 33 34 36 40 41 42 43 43 43 41 40 39 39 40 40 41 42 42
18 19 19 20 18 17 15 19 19 18 14 5 13 3 7 9 14 17 17 20 21 22 21 21 24 29 32 33 34 38 40 41 42 43 42 41 41 41 40 39 40 40 40 40
15 20 20 20 18 20 16 23 19 20 19 22 18 12 9 13 10 11 16 18 20 21 21 20 23 26 31 32 33 35 39 40 41 42 42 42 41 41 40 39 38 39 39 40
18 21 21 19 21 21 23 18 21 27 23 16 17 13 9 8 8 8 13 17 18 20 21 21 22 27 30 33 33 34 37 39 40 41 41 41 40 39 39 38 39 39 41 42
14 18 20 22 19 22 18 14 8 4 21 10 18 18 15 17 16 15 15 14 18 20 21 22 23 28 31 33 33 34 35 37 38 39 39 40 39 39 38 38 39 38 40 42
12 7 18 21 18 14 17 13 8 -2 16 23 21 18 20 20 21 21 21 20 18 20 20 23 25 28 30 32 33 34 35 35 37 38 38 39 39 40 39 38 39 40 40 41
14 14 19 20 20 19 18 16 17 17 20 19 17 18 18 18 20 16 18 19 19 20 21 23 26 29 30 32 33 34 35 35 37 37 38 38 38 38 39 39 40 41 42 44
14 12 18 19 18 19 20 19 16 18 6 4 11 18 14 18 22 24 22 17 20 22 21 22 26 29 31 32 33 35 36 36 37 38 38 37 38 38 38 40 40 42 43 44
16 16 15 17 16 17 18 19 19 17 17 9 16 14 26 22 24 23 24 22 18 20 22 22 25 29 31 32 34 35 36 36 37 39 39 38 39 40 40 40 41 42 43 44
18 16 14 15 17 19 18 17 20 18 10 22 21 20 23 22 24 23 21 19 18 22 23 23 25 28 31 33 35 36 37 37 37 38 39 39 40 41 41 41 42 43 43 44
19 17 15 15 16 19 16 17 20 20 21 17 17 12 15 23 18 20 21 20 19 21 22 23 26 29 30 33 35 36 37 38 38 39 40 40 41 41 41 41 42 43 43 42
29 18 16 14 11 19 16 18 19 18 17 16 16 12 12 12 13 13 12 18 20 19 21 24 25 27 30 32 34 36 37 38 39 40 40 40 40 40 41 41 42 42 41 41
23 19 19 18 17 19 19 18 19 17 16 13 12 13 14 14 14 14 14 17 18 19 21 24 27 27 28 31 34 35 37 38 39 39 39 39 40 41 41 41 41 41 41 40
25 20 22 19 20 20 19 20 20 20 19 17 16 16 17 17 17 17 16 17 17 19 19 22 27 29 28 28 32 34 34 37 39 39 38 38 39 40 41 40 40 40 41 41
26 23 20 18 18 19 18 19 19 19 19 19 16 17 17 17 17 17 17 18 18 18 18 18 23 28 30 29 29 32 34 36 38 38 38 38 39 39 40 40 41 40 41 41
31 24 24 23 22 19 21 19 20 19 19 20 19 19 19 18 19 20 21 20 19 19 19 18 20 27 32 33 33 30 33 36 37 37 37 37 38 38 39 40 40 40 41 41
35 31 26 25 21 22 24 24 22 20 20 22 20 20 20 21 22 22 23 23 22 22 22 22 22 26 29 34 34 33 33 34 36 36 36 36 37 38 39 40 40 41 41 41
34 32 30 29 23 23 21 23 25 24 20 23 23 22 23 22 20 23 24 24 24 26 26 26 27 27 28 29 34 34 34 34 34 35 36 36 37 37 38 39 40 41 41 41
31 31 30 30 30 29 26 25 25 20 21 25 25 26 24 23 25 25 27 29 27 26 27 29 29 30 30 31 33 34 34 34 34 35 36 37 38 37 37 39 41 41 41 42
28 32 31 30 29 28 30 26 24 30 30 32 35 32 27 27 29 29 30 30 32 31 31 32 32 33 34 34 33 34 35 35 35 36 37 38 38 37 37 40 42 41 41 41
29 33 30 32 31 32 33 30 31 34 30 29 32 36 38 35 29 29 30 30 32 32 33 33 33 33 34 35 36 35 36 37 37 36 36 37 38 38 39 40 41 42 42 42
27 25 31 31 28 30 28 28 27 31 28 26 26 35 37 36 32 31 31 32 33 32 32 33 33 33 34 35 35 37 37 38 38 37 37 38 38 39 40 40 41 42 42 42
30 29 27 30 31 28 25 24 23 24 28 27 26 31 33 34 34 33 33 32 32 33 33 34 33 34 35 35 36 37 38 39 38 38 38 39 39 41 40 41 42 41 42 42
27 27 26 24 23 22 23 25 27 27 29 28 27 29 33 35 32 31 33 34 34 34 34 34 34 35 35 36 36 37 39 39 39 38 39 40 41 41 41 42 41 45 45 45
Lifted_Index
8 7 7 7 7 7 7 6 5 7 7 7 5 4 5 6 6 5 6 6 6 7 9 10 12 12 13 13 12 12 12 13 13 14 14 15 15 16 16 17 17 17 17 17
7 7 8 8 8 7 6 5 5 6 7 6 5 4 4 5 5 5 6 6 6 7 8 9 11 12 12 12 12 12 12 13 13 14 14 15 15 15 16 16 17 17 17 17
7 8 9 9 8 7 6 5 5 5 6 5 4 3 3 4 4 5 5 6 6 6 7 8 10 11 11 12 12 13 13 13 13 14 14 14 15 15 15 16 16 16 16 16
7 8 8 8 8 7 6 6 6 5 4 4 3 2 2 3 3 4 5 5 6 6 7 8 9 10 11 12 13 13 13 13 14 14 14 14 14 14 15 15 15 15 16 16
7 8 8 8 8 8 8 8 7 6 4 3 3 2 2 2 3 3 4 5 5 6 7 8 9 10 11 12 13 13 13 13 14 14 14 14 14 14 15 15 15 15 15 15
8 8 8 8 9 9 9 8 6 5 4 3 3 2 2 2 3 3 4 5 5 6 6 7 8 10 11 12 13 13 13 13 14 14 14 14 14 14 14 14 14 14 14 14
6 7 8 8 8 9 8 6 4 2 2 2 2 2 2 3 4 5 5 5 5 6 6 7 8 9 10 11 12 12 12 13 13 14 14 14 14 14 14 13 13 12 12 11
4 5 7 8 8 8 7 6 4 2 1 2 2 2 3 4 5 6 6 6 6 6 6 7 8 8 9 10 11 12 12 12 13 13 13 13 13 13 13 13 12 11 10 10
4 5 7 9 8 8 7 6 5 3 2 2 2 2 3 4 6 6 6 6 6 6 6 7 8 9 9 10 11 12 12 12 12 13 13 13 13 13 13 13 12 11 10 9
6 6 7 8 8 8 7 7 6 5 3 1 1 2 3 4 5 6 6 6 6 6 6 7 8 9 9 10 11 12 12 12 12 13 13 13 13 13 13 13 12 10 9 9
8 7 7 7 8 8 8 7 7 6 4 2 1 2 4 5 6 6 6 7 7 7 7 7 8 9 9 10 11 11 12 12 12 12 13 13 13 13 13 12 11 10 9 9
9 8 6 6 8 8 8 7 7 6 5 3 2 3 5 6 7 7 7 7 7 8 8 9 9 9 9 10 10 11 11 11 12 12 12 12 13 13 12 12 11 10 9 9
9 8 6 5 7 8 7 7 7 7 6 4 3 3 6 7 7 7 7 8 8 9 9 9 9 10 9 10 10 10 11 11 11 12 12 12 12 12 11 11 10 9 9 9
9 9 7 6 7 8 7 7 8 7 6 4 3 4 6 7 7 7 8 8 9 9 9 9 9 10 10 10 10 10 10 11 11 11 11 11 11 11 11 11 10 9 9 9
9 9 8 8 8 8 8 8 8 7 6 5 5 5 6 7 7 7 8 8 8 8 9 9 9 9 10 10 10 10 10 10 11 11 11 11 11 11 11 11 10 9 9 8
9 9 9 9 9 9 8 8 8 7 7 6 5 5 6 7 7 7 8 8 8 8 9 10 10 10 10 10 10 10 10 10 10 10 10 10 10 10 10 10 10 9 9 9
9 9 8 8 8 7 7 8 8 8 7 7 6 6 7 7 7 8 8 9 9 9 9 10 10 10 10 10 10 10 10 10 10 10 10 10 10 10 9 9 9 9 9 9
8 8 8 7 7 6 7 9 9 8 8 8 8 7 7 7 8 9 9 9 9 9 9 10 10 10 10 10 10 10 10 10 10 10 10 9 9 9 9 9 9 8 8 8
7 8 8 7 6 5 7 10 10 8 8 8 8 8 7 7 8 9 9 10 10 10 10 10 10 11 10 10 10 10 10 10 10 10 9 9 9 8 8 8 8 8 8 8
8 7 7 7 6 6 8 9 9 8 7 8 8 8 8 7 8 8 9 10 10 10 10 10 10 10 10 10 10 10 10 10 10 10 9 9 9 9 8 8 8 8 8 8
8 7 7 7 7 7 8 9 9 8 7 7 8 8 8 8 8 8 9 9 9 10 10 10 10 10 10 10 10 10 10 9 9 10 10 10 9 9 9 9 9 9 9 9
9 8 7 7 7 7 8 9 9 9 9 8 8 9 9 9 9 9 9 9 9 9 9 9 10 10 10 10 10 9 9 9 9 9 10 10 10 9 9 9 9 9 9 9
10 9 7 7 7 8 8 9 10 11 10 10 9 9 9 9 9 9 9 9 9 9 9 9 10 10 10 10 10 10 9 9 9 9 9 9 9 9 9 9 9 9 9 8
10 9 7 8 8 9 9 9 10 11 12 11 10 9 9 9 9 9 9 9 9 9 9 9 9 9 10 10 10 10 10 9 9 8 8 9 9 9 9 9 8 8 8 8
7 7 6 7 8 9 9 10 10 11 12 12 11 10 9 9 9 9 8 9 9 9 9 9 9 9 9 9 10 10 10 10 9 9 9 8 8 8 8 8 8 8 8 8
6 5 5 5 7 9 10 10 11 11 12 12 12 10 9 9 9 8 8 8 8 9 9 9 8 8 8 9 9 10 10 10 10 9 9 9 8 8 8 8 8 8 8 8